Weather in Sergino

Russia / Udmurt Republic     58°24′33″N   53°31′50″E
temp.,
°C
wind,
m/s
gust,
m/s
humid.,
%
clouds,
%
prec.,
mm/h
press.,
hPa
HPBL,
m
26 january, tue
tue2601:00−2sw41095100 0.0 1024415
04:00−2sw41194100 0.0 1024470
07:00−4sw4109399 0.0 1025471
10:00−4ssw4893100 0.1 1025566
13:00−5sw4892100 0.1 1024515
16:00−5ssw3993100 0.2 1024522
19:00−4ssw31095100 0.1 1024468
22:00−5ssw399599 0.2 1023349
27 january, wed
wed2701:00−4ssw3994100 0.1 1023446
04:00−5ssw3995100 0.1 1023416
07:00−5s31094100 0.1 1023449
10:00−4s41093100 0.3 1022470
13:00−4s51192100 0.1 1021610
16:00−3ssw51290100 0.2 1019862
19:00−3ssw61390100 0.1 1018853
22:00−3ssw61494100 2.1 1015693
28 january, thu
thu2801:00−3ssw61492100 1.5 1015606
04:00−3sw61491100 2.3 1014662
07:00−2sw61393100 0.4 1015701
10:00−2wsw41192100 0.4 1016657
13:00−2wsw3793100 0.1 1018572
16:00−2sw2593100 0.1 1019343
19:00−3ssw2596100 0.0 1020235
22:00−4s2496100 0.1 1020196
29 january, fri
fri2901:00−6s2597100 0.2 1020197
04:00−7sse2595100 0.3 1019242
07:00−9se2496100 0.0 1019125
10:00−9se3694100 0.0 1018252
13:00−7se3793100 0.0 1017282
16:00−8ese4894100 0.0 1014297
19:00−8ese41094100 0.0 1012316
22:00−6ese51294100 0.0 1010423
30 january, sat
sat3001:00−9e61392100 0.1 1008440
04:00−11e51292100 0.3 1007440
07:00−12e51292100 0.4 1005434
10:00−13e51193100 0.4 1005356
13:00−12ese4893100 0.1 1005323
16:00−12ese3695100 0.8 1006226
19:00−12se2496100 0.4 1008131
22:00−10sse1298100 0.5 100947